Regional Weather Roundup
Issued by NWS Green Bay, WI

Home | Current Version | Previous Version | Graphics & Text | Print | Product List | Glossary Off
Versions: 1 2 3 4 5 6 7 8 9 10 11 12 13 14 15 16 17 18 19 20 21 22 23 24 25 26 27 28 29 30 31 32 33 34 35 36 37 38 39 40 41 42 43 44 45 46 47 48 49 50

000
ASUS43 KGRB 190511
RWRGRB

NORTH-CENTRAL AND NORTHEAST WISCONSIN REGIONAL WEATHER ROUNDUP
NATIONAL WEATHER SERVICE GREEN BAY WI
1200 AM CDT THU OCT 19 2017

WIZ005-009-010>012-018-019-190600-
NORTH CENTRAL WISCONSIN

CITY           SKY/WX    TMP DP  RH WIND       PRES   REMARKS
IRONWOOD       CLEAR     49  20  31 W12       29.88R
MANITOWISH WTR CLEAR     48  21  34 W8        29.89R
ARBOR VITAE    CLEAR     52  21  29 W9G16     29.89R
EAGLE RIVER    CLEAR     52  17  25 W12       29.88R
LAND O LAKES   CLEAR     51  21  30 W6        29.88R
RHINELANDER    CLOUDY    51  22  31 W10       29.90R
PHILLIPS       CLOUDY    51  22  32 W6        29.92R
ANTIGO         CLOUDY    53  26  34 NW21G29   29.91R
TOMAHAWK       CLOUDY    49  20  30 W9        29.92R
MERRILL        CLOUDY    53  24  31 W10G18    29.93R
$$

WIZ013-073-190600-
NORTHEAST WISCONSIN

CITY           SKY/WX    TMP DP  RH WIND       PRES   REMARKS
IRON MOUNTAIN  CLEAR     58  29  33 W10       29.83R
MARINETTE      PTCLDY    61  47  59 W8        29.84R
OCONTO         MOCLDY    60  46  61 W12G18    29.86R
$$

WIZ017-030-035>037-045-190600-
CENTRAL WISCONSIN

CITY           SKY/WX    TMP DP  RH WIND       PRES   REMARKS
MEDFORD        CLOUDY    51  24  35 W13G22    29.94R
WAUSAU         CLOUDY    54  26  34 W15       29.92R
MOSINEE        CLOUDY    52  30  43 W12       29.95R
MARSHFIELD     CLOUDY    52  25  35 W10       29.95R
WISC RAPIDS    CLOUDY    57  31  37 NW12      29.97R
STEVENS POINT  CLOUDY    56  29  36 W8        29.95R
WAUPACA        PTCLDY    62  41  46 W10       29.92R
SHAWANO        PTCLDY    62  43  49 W12G20    29.88R
CLINTONVILLE   CLEAR     61  39  44 W12G20    29.90R
WAUTOMA        CLEAR     56  47  71 W9        29.95R
$$

WIZ038-039-048-051-190600-
FOX VALLEY

CITY           SKY/WX    TMP DP  RH WIND       PRES   REMARKS
NWS GREEN BAY  PTCLDY    60  48  64 W12       29.89R
APPLETON       PTCLDY    59  43  55 SW13      29.89R
OSHKOSH        PTCLDY    60  46  59 SW9G18    29.91R
FOND DU LAC    PTCLDY    59  44  57 SW12      29.93R
$$

WIZ022-050-052-190600-
EAST CENTRAL WISCONSIN

CITY           SKY/WX    TMP DP  RH WIND       PRES   REMARKS
EPHRAIM        FAIR      59  49  69 SW10G21   29.83S
WASHINGTON ISL FAIR      60  50  70 SW13G22   29.82S
STURGEON BAY   PTCLDY    62  47  57 SW14      29.86R
MANITOWOC      MOCLDY    64  46  52 W18G24    29.88S
SHEBOYGAN      CLOUDY    62  46  55 SW12G22   29.91F
$$

LMZ563-521-522-541>543-190600-
LAKESHORE

STATION/POSITION TIME  TEMP    WIND        PRES    VSBY  WAVE
                       AIR SEA DIR/SP/G                  HT/PER
                 (UTC) (F)     (DEG/KT/KT) (MB)    (MI)  (FT/S)
SHEBOYGAN LKSHOR 0500   64     230/ 17/ 20 1012.5F
KEWAUNEE LKSHORE 0448   65     240/ 12/ 20 1010.6R
NORTHPORT PIER   0440   63     230/  4/ 11 1009.8S
N MID LAKE BUOY  0450   60 58  210/ 21/ 25 1010.0R        10/ 8
S GREEN BAY BUOY 0500   61 58  220/ 16/ 21 1010.8R
SISTER BAY LKSHO 0404   64     250/ 18/ 22   N/A
MENOMINEE LKSHOR 0448   63     230/ 12/ 18 1010.2R
$$




USA.gov is the U.S. government's official web portal to all federal, state and local government web resources and services.